Tracking 23440 objects as of 13-Jun-2021
HD Live streaming from Space Station
objects crossing your sky now

ONEWEB-0139

Track ONEWEB-0139 now!
10-day predictions
ONEWEB-0139 is classified as:


NORAD ID: 47285
Int'l Code: 2020-100AD
Perigee: 1,219.3 km
Apogee: 1,222.4 km
Inclination: 87.9 °
Period: 109.7 minutes
Semi major axis: 7591 km
RCS: Unknown
Launch date: December 18, 2020
Source: United Kingdom (UK)
Launch site: VOSTOCHNY COSMODROME (VOSTO)
aabbcc
Your satellite tracking list
Your tracking list is empty




NASA's NSSDC Master Catalog

Two Line Element Set (TLE):
1 47285U 20100AD  21163.79631092 -.00000295  00000-0 -85536-3 0  9997
2 47285  87.8944 354.5940 0002066  94.7823 265.3542 13.12445571 24630
Source of the keplerian elements: AFSPC